DMSP 5D-2 F13 DEB, 40489

Orbit data source: Space-Track

DMSP 5D-2 F13 DEB, 40489 is space debris in SSO originally from a launch on Fri, 24 Mar 1995 UTC launched from the Air Force Western Test Range (AFWTR). Debris objects in space refer to the collection of defunct objects orbiting the Earth. Examples of debris include non-operational satellites, rocket bodies, and fragments generated from explosions, collisions, or faulty payload assembly.

Loading next visibility...
Identifier
40489, 1995-015CC
Orbit
SSO
Country
Flag of USUS
Related business
Manufacturer
Unknown
Mission
Spacecraft
Bus & Motor
Unknown
Mass
Unknown
Launch date (UTC)
1995-03-24 (31 years ago)
Launch vehicle
Unknown
Launch site
Air Force Western Test Range (AFWTR)
Object type
Payload
Rocket body
Debris
Shape & HBR
Unknown shape, 0.1 m
Radar Cross Section
Small (<0.1 m²)

Expand to show TLE details & history
Last TLE update: 5 days ago

TLE from 5 days ago
0 DMSP 5D-2 F13 DEB
1 40489U 95015CC  25345.37351313  .00031564  00000-0  83629-2 0  9999
2 40489  98.7368 315.2657 0031930 157.0636 203.1990 14.48320211554050
Epoch: 2025-12-11T08:57Z
TLE epoch observation values (Epoch: 2025-12-11T08:57:51.534Z)
Latitude
-0.00002°
Longitude
100.47056°
Altitude
754.972 km
Speed
7.466 km/s
True Right ascension
21h 01m 03s
True Declination
0° 00' 00"
Sunlit
Object was in daylight at epoch
Visualization orbit readout
Latitude
Unknown
Longitude
Unknown
Altitude
Unknown
Speed
Unknown
Apparent Right ascension
Unknown
Apparent Declination
Unknown
Sunlit
N/A
Visualization observer readout
Local Sidereal Time
21:36:55
Azimuth
Unknown
Elevation
Unknown
Doppler factor
Unknown
Orbital elements
Apogee altitude
750.953 km
Perigee altitude
705.572 km
Semi-major axis
7,106.399 km
Eccentricity
0.00319
Inclination
98.7368°
RAAN
315.2657°
Arg. of periapsis
157.0636°
True anomaly
203.05539°
Mean anomaly
203.199°
Eccentric anomaly
203.12714°
Mean motion
3.623 °/min
Orbital period
99.37 mins
BSTAR
0.0083629
Loading maneuver chart data...
Computing Atmospheric mass density...

Documentation

Showing up to 5 results
|